CW9592 Weather Reports


Display with metric or nautical units.
time (UTC)temp
F
wind
direction
speed
MPH
gust
MPH
rain 1hr
in
rain 24hr
in
rain mn
in
humidity
%
barometer
mb
20260509170701 58 261 3.0 6.0 0.00 0.00 0.00 77 1016.7
20260509170202 58 276 2.0 8.0 0.00 0.00 0.00 77 1016.6
20260509160701 59 352 2.0 3.0 0.00 0.00 0.00 77 1015.3
20260509160201 59 317 3.0 9.0 0.00 0.00 0.00 76 1015.3
20260509150701 59 260 2.0 6.0 0.00 0.00 0.00 76 1015.0
20260509150201 60 241 3.0 9.0 0.00 0.00 0.00 76 1015.0
20260509140701 61 263 6.0 9.0 0.00 0.00 0.00 76 1014.7
20260509130701 61 262 7.0 10.0 0.00 0.00 0.00 75 1014.7
20260509130201 62 253 6.0 12.0 0.00 0.00 0.00 75 1014.7
20260509120701 61 259 9.0 13.0 0.00 0.00 0.00 76 1015.2
20260509110703 62 264 8.0 12.0 0.00 0.00 0.00 75 1015.6
20260509110201 62 264 9.0 14.0 0.00 0.00 0.00 75 1015.6
20260509100701 62 315 9.0 12.0 0.00 0.00 0.00 75 1015.8
20260509100201 62 312 7.0 12.0 0.00 0.00 0.00 75 1015.9
20260509090201 61 333 7.0 12.0 0.00 0.00 0.00 76 1016.8
20260509080701 57 24 3.0 7.0 0.00 0.00 0.00 81 1016.9
20260509080201 57 357 6.0 12.0 0.00 0.00 0.00 81 1017.0
20260509070201 56 0 6.0 10.0 0.00 0.00 0.00 83 1017.1
20260509060701 56 42 3.0 6.0 0.00 0.00 0.00 84 1016.7
20260509060202 56 6 2.0 7.0 0.00 0.00 0.00 84 1016.7
20260509050702 56 42 2.0 3.0 0.00 0.00 0.00 85 1016.4
20260509050201 55 39 2.0 6.0 0.00 0.00 0.00 85 1016.3
20260509040701 55 3 3.0 5.0 0.00 0.01 0.00 86 1016.0
20260509040202 55 29 2.0 8.0 0.00 0.01 0.00 86 1016.0
20260509030701 55 30 3.0 6.0 0.00 0.01 0.00 87 1015.7
20260509030202 55 13 5.0 10.0 0.00 0.01 0.00 87 1015.8
20260509020202 55 24 3.0 12.0 0.00 0.01 0.00 88 1015.5
20260509010703 54 356 5.0 9.0 0.00 0.01 0.00 88 1015.8
20260509010202 53 3 7.0 13.0 0.00 0.01 0.00 88 1015.8
20260509000702 54 14 3.0 10.0 0.00 0.01 0.00 88 1016.1
20260509000201 54 2 5.0 12.0 0.00 0.01 0.00 88 1016.0
20260508230701 54 346 4.0 7.0 0.00 0.01 0.00 88 1016.0
20260508230202 54 7 3.0 9.0 0.00 0.01 0.00 88 1016.0
20260508220702 54 11 3.0 5.0 0.00 0.01 0.00 88 1015.8
20260508220203 54 29 2.0 8.0 0.00 0.01 0.00 88 1015.8
20260508210701 54 26 3.0 6.0 0.00 0.01 0.01 88 1015.7
20260508210203 54 15 2.0 8.0 0.00 0.01 0.01 88 1015.7
20260508200702 53 14 2.0 6.0 0.00 0.01 0.01 87 1015.6
20260508190702 53 350 1.0 3.0 0.00 0.01 0.01 86 1015.3
20260508190202 53 13 3.0 7.0 0.00 0.01 0.01 86 1015.2
20260508180702 54 19 2.0 5.0 0.00 0.01 0.01 85 1014.3
20260508180201 54 357 2.0 5.0 0.00 0.01 0.01 85 1014.3